Location: Moscow
(55.7500°N, 37.5830°E)
Time: 23:19:42
(UTC+03:00)

COSMOS 2251 DEB - Pass Details

Date: 08 July 2022
Orbit: 738 x 847 km, 74.1° (Epoch: 17 August)

Event Time Altitude Azimuth Distance (km) Brightness Sun altitude
Rises 00:47:04 0° 327° (NNW) 3,259 ? -11.7°
Reaches altitude 10° 00:50:37 10° 351° (N) 2,307 ? -11.7°
Maximum altitude 00:53:30 15° 25° (NNE) 1,981 ? -11.6°
Drops below altitude 10° 00:56:21 10° 59° (ENE) 2,275 ? -11.6°
Sets 00:59:47 0° 83° (E) 3,184 ? -11.6°
